NUDTSAT (42787 NORAD) Tracking and Keplerian Element Data

This shows tracking and keplerian element data for the satellite.

Feedback or suggestion? Click here.




ElementValue
Catalog42787
NameNUDTSAT
Epoch Orbit18481
Epoch Day294.91835375
Epoch Year2020
RAAN347.0483
Inclination97.2918
Eccentricity0.0010536
Argument of Perigee310.5078
Mean Anonmoly49.5239
Mean Motion15.2492813
Decay Rate1.836E-05
L11 42787U 17036Y 20294.91835375 .00001836 00000-0 76486-4 0 9996
L22 42787 97.2918 347.0483 0010536 310.5078 49.5239 15.24928130184813

Live tracking and technical data element details for NUDTSAT (NORAD 42787). NUDTSAT can be tracked NOW for your location showing map with azimuth and elevation plus other details from your city location.

Track the satellite on the map from your city or location and see movement details for azimuth, elevation, latitude, longitude, range, height, and movement on the map or in text.







IsCatalogInMostPopularTable: catalog: 42787, numindb: 424
Update: records affected: 1



GetName: 42787 NUDTSAT

Hit Count: updated at: Thu, 22 Oct 2020 03:17:19 GMT